<?xml version="1.0" encoding="UTF-8" standalone="no" ?>
<gpx xmlns="http://www.topografix.com/GPX/1/1" xmlns:xsi="http://www.w3.org/2001/XMLSchema-instance" xsi:schemaLocation="http://www.topografix.com/GPX/1/1 http://www.topografix.com/GPX/1/1/gpx.xsd" version="1.1" creator="VisuGPX - https://www.visugpx.com">
  <metadata>
    <name>Rando des gourmands 2025</name>
    <desc><![CDATA[grp_trc:]]></desc>
  </metadata>
  <trk>
    <name><![CDATA[Trajet définitif après modif]]></name>
    <cmt><![CDATA[12:33:45]]></cmt>
    <desc><![CDATA[comment ...]]></desc>
    <trkseg>
      <trkpt lat="47.99084" lon="1.03495">
        <ele>188</ele>
        <time>2025-05-21T10:33:45Z</time>
      </trkpt>
      <trkpt lat="47.99083" lon="1.03496">
        <ele>188</ele>
        <time>2025-05-21T10:33:45Z</time>
      </trkpt>
      <trkpt lat="47.99047" lon="1.03406">
        <ele>186.7</ele>
        <time>2025-05-21T10:33:45Z</time>
      </trkpt>
      <trkpt lat="47.9904" lon="1.03398">
        <ele>186.5</ele>
        <time>2025-05-21T10:33:45Z</time>
      </trkpt>
      <trkpt lat="47.99031" lon="1.03275">
        <ele>186.9</ele>
        <time>2025-05-21T10:33:45Z</time>
      </trkpt>
      <trkpt lat="47.99019" lon="1.03191">
        <ele>185.6</ele>
        <time>2025-05-21T10:33:45Z</time>
      </trkpt>
      <trkpt lat="47.99036" lon="1.03005">
        <ele>179.3</ele>
        <time>2025-05-21T10:33:45Z</time>
      </trkpt>
      <trkpt lat="47.99066" lon="1.02922">
        <ele>181.1</ele>
        <time>2025-05-21T10:33:45Z</time>
      </trkpt>
      <trkpt lat="47.99119" lon="1.02803">
        <ele>183.6</ele>
        <time>2025-05-21T10:33:45Z</time>
      </trkpt>
      <trkpt lat="47.99155" lon="1.02627">
        <ele>183.9</ele>
        <time>2025-05-21T10:33:45Z</time>
      </trkpt>
      <trkpt lat="47.9917" lon="1.02372">
        <ele>183.3</ele>
        <time>2025-05-21T10:33:45Z</time>
      </trkpt>
      <trkpt lat="47.99235" lon="1.02145">
        <ele>180.8</ele>
        <time>2025-05-21T10:33:45Z</time>
      </trkpt>
      <trkpt lat="47.99237" lon="1.01984">
        <ele>173</ele>
        <time>2025-05-21T10:33:45Z</time>
      </trkpt>
      <trkpt lat="47.9927" lon="1.01782">
        <ele>167.2</ele>
        <time>2025-05-21T10:33:45Z</time>
      </trkpt>
      <trkpt lat="47.9928" lon="1.01766">
        <ele>167.8</ele>
        <time>2025-05-21T10:33:45Z</time>
      </trkpt>
      <trkpt lat="47.99292" lon="1.01755">
        <ele>168.6</ele>
        <time>2025-05-21T10:33:45Z</time>
      </trkpt>
      <trkpt lat="47.99415" lon="1.01718">
        <ele>172.5</ele>
        <time>2025-05-21T10:33:45Z</time>
      </trkpt>
      <trkpt lat="47.99531" lon="1.0171">
        <ele>165.3</ele>
        <time>2025-05-21T10:33:45Z</time>
      </trkpt>
      <trkpt lat="47.99549" lon="1.017">
        <ele>165</ele>
        <time>2025-05-21T10:33:45Z</time>
      </trkpt>
      <trkpt lat="47.99564" lon="1.01683">
        <ele>165</ele>
        <time>2025-05-21T10:33:45Z</time>
      </trkpt>
      <trkpt lat="47.99572" lon="1.01665">
        <ele>164.8</ele>
        <time>2025-05-21T10:33:45Z</time>
      </trkpt>
      <trkpt lat="47.99575" lon="1.01645">
        <ele>164.8</ele>
        <time>2025-05-21T10:33:45Z</time>
      </trkpt>
      <trkpt lat="47.99575" lon="1.01645">
        <ele>164.9</ele>
        <time>2025-05-21T10:33:45Z</time>
      </trkpt>
      <trkpt lat="47.99574" lon="1.01625">
        <ele>165</ele>
        <time>2025-05-21T10:33:45Z</time>
      </trkpt>
      <trkpt lat="47.99463" lon="1.01457">
        <ele>178.2</ele>
        <time>2025-05-21T10:33:45Z</time>
      </trkpt>
      <trkpt lat="47.99433" lon="1.01378">
        <ele>181.8</ele>
        <time>2025-05-21T10:33:45Z</time>
      </trkpt>
      <trkpt lat="47.99433" lon="1.01343">
        <ele>182.8</ele>
        <time>2025-05-21T10:33:45Z</time>
      </trkpt>
      <trkpt lat="47.99431" lon="1.01333">
        <ele>183</ele>
        <time>2025-05-21T10:33:45Z</time>
      </trkpt>
      <trkpt lat="47.99368" lon="1.01265">
        <ele>185.4</ele>
        <time>2025-05-21T10:33:45Z</time>
      </trkpt>
      <trkpt lat="47.99195" lon="1.00901">
        <ele>192</ele>
        <time>2025-05-21T10:33:45Z</time>
      </trkpt>
      <trkpt lat="47.99192" lon="1.00882">
        <ele>192</ele>
        <time>2025-05-21T10:33:45Z</time>
      </trkpt>
      <trkpt lat="47.99028" lon="1.00583">
        <ele>193</ele>
        <time>2025-05-21T10:33:45Z</time>
      </trkpt>
      <trkpt lat="47.98955" lon="1.00411">
        <ele>193</ele>
        <time>2025-05-21T10:33:45Z</time>
      </trkpt>
      <trkpt lat="47.98949" lon="1.00404">
        <ele>193</ele>
        <time>2025-05-21T10:33:45Z</time>
      </trkpt>
      <trkpt lat="47.98918" lon="1.00393">
        <ele>194</ele>
        <time>2025-05-21T10:33:45Z</time>
      </trkpt>
      <trkpt lat="47.98845" lon="1.00353">
        <ele>195.2</ele>
        <time>2025-05-21T10:33:45Z</time>
      </trkpt>
      <trkpt lat="47.98785" lon="1.00329">
        <ele>196</ele>
        <time>2025-05-21T10:33:45Z</time>
      </trkpt>
      <trkpt lat="47.98779" lon="1.0032">
        <ele>196</ele>
        <time>2025-05-21T10:33:45Z</time>
      </trkpt>
      <trkpt lat="47.98785" lon="1.00216">
        <ele>197</ele>
        <time>2025-05-21T10:33:45Z</time>
      </trkpt>
      <trkpt lat="47.98787" lon="1.00216">
        <ele>197</ele>
        <time>2025-05-21T10:33:45Z</time>
      </trkpt>
      <trkpt lat="47.98781" lon="1.00199">
        <ele>197</ele>
        <time>2025-05-21T10:33:45Z</time>
      </trkpt>
      <trkpt lat="47.98772" lon="1.00211">
        <ele>197.2</ele>
        <time>2025-05-21T10:33:45Z</time>
      </trkpt>
      <trkpt lat="47.98379" lon="1.00441">
        <ele>199.5</ele>
        <time>2025-05-21T10:33:45Z</time>
      </trkpt>
      <trkpt lat="47.98348" lon="1.00447">
        <ele>199.9</ele>
        <time>2025-05-21T10:33:45Z</time>
      </trkpt>
      <trkpt lat="47.98293" lon="1.00496">
        <ele>199.1</ele>
        <time>2025-05-21T10:33:45Z</time>
      </trkpt>
      <trkpt lat="47.98125" lon="1.0066">
        <ele>196</ele>
        <time>2025-05-21T10:33:45Z</time>
      </trkpt>
      <trkpt lat="47.97725" lon="1.00873">
        <ele>198.5</ele>
        <time>2025-05-21T10:33:45Z</time>
      </trkpt>
      <trkpt lat="47.97726" lon="1.00874">
        <ele>198.5</ele>
        <time>2025-05-21T10:33:45Z</time>
      </trkpt>
      <trkpt lat="47.97692" lon="1.00907">
        <ele>198</ele>
        <time>2025-05-21T10:33:45Z</time>
      </trkpt>
      <trkpt lat="47.97697" lon="1.00918">
        <ele>197.9</ele>
        <time>2025-05-21T10:33:45Z</time>
      </trkpt>
      <trkpt lat="47.9782" lon="1.01083">
        <ele>196</ele>
        <time>2025-05-21T10:33:45Z</time>
      </trkpt>
      <trkpt lat="47.97888" lon="1.01245">
        <ele>195.2</ele>
        <time>2025-05-21T10:33:45Z</time>
      </trkpt>
      <trkpt lat="47.98022" lon="1.01758">
        <ele>192</ele>
        <time>2025-05-21T10:33:45Z</time>
      </trkpt>
      <trkpt lat="47.98075" lon="1.02006">
        <ele>190.9</ele>
        <time>2025-05-21T10:33:45Z</time>
      </trkpt>
      <trkpt lat="47.98095" lon="1.02069">
        <ele>190.2</ele>
        <time>2025-05-21T10:33:45Z</time>
      </trkpt>
      <trkpt lat="47.98257" lon="1.02376">
        <ele>190.1</ele>
        <time>2025-05-21T10:33:45Z</time>
      </trkpt>
      <trkpt lat="47.9826" lon="1.02398">
        <ele>190</ele>
        <time>2025-05-21T10:33:45Z</time>
      </trkpt>
      <trkpt lat="47.98299" lon="1.02498">
        <ele>189</ele>
        <time>2025-05-21T10:33:45Z</time>
      </trkpt>
      <trkpt lat="47.98306" lon="1.02525">
        <ele>188.1</ele>
        <time>2025-05-21T10:33:45Z</time>
      </trkpt>
      <trkpt lat="47.9831" lon="1.02534">
        <ele>188</ele>
        <time>2025-05-21T10:33:45Z</time>
      </trkpt>
      <trkpt lat="47.98316" lon="1.02541">
        <ele>188</ele>
        <time>2025-05-21T10:33:45Z</time>
      </trkpt>
      <trkpt lat="47.98329" lon="1.02544">
        <ele>188</ele>
        <time>2025-05-21T10:33:45Z</time>
      </trkpt>
      <trkpt lat="47.98335" lon="1.02552">
        <ele>188</ele>
        <time>2025-05-21T10:33:45Z</time>
      </trkpt>
      <trkpt lat="47.98343" lon="1.02572">
        <ele>187.4</ele>
        <time>2025-05-21T10:33:45Z</time>
      </trkpt>
      <trkpt lat="47.98343" lon="1.02573">
        <ele>187.4</ele>
        <time>2025-05-21T10:33:45Z</time>
      </trkpt>
      <trkpt lat="47.98312" lon="1.02582">
        <ele>187</ele>
        <time>2025-05-21T10:33:45Z</time>
      </trkpt>
      <trkpt lat="47.98295" lon="1.02584">
        <ele>187</ele>
        <time>2025-05-21T10:33:45Z</time>
      </trkpt>
      <trkpt lat="47.98277" lon="1.02594">
        <ele>187</ele>
        <time>2025-05-21T10:33:45Z</time>
      </trkpt>
      <trkpt lat="47.98277" lon="1.02594">
        <ele>187</ele>
        <time>2025-05-21T10:33:45Z</time>
      </trkpt>
      <trkpt lat="47.98127" lon="1.02762">
        <ele>189.1</ele>
        <time>2025-05-21T10:33:45Z</time>
      </trkpt>
      <trkpt lat="47.98243" lon="1.02803">
        <ele>187.3</ele>
        <time>2025-05-21T10:33:45Z</time>
      </trkpt>
      <trkpt lat="47.98337" lon="1.0289">
        <ele>185.9</ele>
        <time>2025-05-21T10:33:45Z</time>
      </trkpt>
      <trkpt lat="47.98337" lon="1.0289">
        <ele>185.9</ele>
        <time>2025-05-21T10:33:45Z</time>
      </trkpt>
      <trkpt lat="47.9851" lon="1.03177">
        <ele>181</ele>
        <time>2025-05-21T10:33:45Z</time>
      </trkpt>
      <trkpt lat="47.98509" lon="1.03179">
        <ele>181.1</ele>
        <time>2025-05-21T10:33:45Z</time>
      </trkpt>
      <trkpt lat="47.98616" lon="1.0326">
        <ele>179.8</ele>
        <time>2025-05-21T10:33:45Z</time>
      </trkpt>
      <trkpt lat="47.98599" lon="1.0349">
        <ele>181.7</ele>
        <time>2025-05-21T10:33:45Z</time>
      </trkpt>
      <trkpt lat="47.98577" lon="1.03619">
        <ele>183.2</ele>
        <time>2025-05-21T10:33:45Z</time>
      </trkpt>
      <trkpt lat="47.98576" lon="1.03664">
        <ele>183.3</ele>
        <time>2025-05-21T10:33:45Z</time>
      </trkpt>
      <trkpt lat="47.9858" lon="1.03718">
        <ele>182.3</ele>
        <time>2025-05-21T10:33:45Z</time>
      </trkpt>
      <trkpt lat="47.98401" lon="1.03754">
        <ele>186</ele>
        <time>2025-05-21T10:33:45Z</time>
      </trkpt>
      <trkpt lat="47.98296" lon="1.03745">
        <ele>188</ele>
        <time>2025-05-21T10:33:45Z</time>
      </trkpt>
      <trkpt lat="47.98138" lon="1.03767">
        <ele>190.4</ele>
        <time>2025-05-21T10:33:45Z</time>
      </trkpt>
      <trkpt lat="47.98089" lon="1.04347">
        <ele>192.6</ele>
        <time>2025-05-21T10:33:45Z</time>
      </trkpt>
      <trkpt lat="47.98099" lon="1.04426">
        <ele>193.2</ele>
        <time>2025-05-21T10:33:45Z</time>
      </trkpt>
      <trkpt lat="47.98098" lon="1.04426">
        <ele>193.2</ele>
        <time>2025-05-21T10:33:45Z</time>
      </trkpt>
      <trkpt lat="47.98104" lon="1.04761">
        <ele>196.2</ele>
        <time>2025-05-21T10:33:45Z</time>
      </trkpt>
      <trkpt lat="47.98084" lon="1.04902">
        <ele>198</ele>
        <time>2025-05-21T10:33:45Z</time>
      </trkpt>
      <trkpt lat="47.98081" lon="1.05107">
        <ele>199.1</ele>
        <time>2025-05-21T10:33:45Z</time>
      </trkpt>
      <trkpt lat="47.98075" lon="1.05127">
        <ele>199.3</ele>
        <time>2025-05-21T10:33:45Z</time>
      </trkpt>
      <trkpt lat="47.98056" lon="1.05269">
        <ele>200</ele>
        <time>2025-05-21T10:33:45Z</time>
      </trkpt>
      <trkpt lat="47.98055" lon="1.05269">
        <ele>200</ele>
        <time>2025-05-21T10:33:45Z</time>
      </trkpt>
      <trkpt lat="47.98056" lon="1.0529">
        <ele>200.4</ele>
        <time>2025-05-21T10:33:45Z</time>
      </trkpt>
      <trkpt lat="47.98376" lon="1.06035">
        <ele>200.5</ele>
        <time>2025-05-21T10:33:45Z</time>
      </trkpt>
      <trkpt lat="47.98376" lon="1.06035">
        <ele>200.5</ele>
        <time>2025-05-21T10:33:45Z</time>
      </trkpt>
      <trkpt lat="47.98385" lon="1.06036">
        <ele>200.1</ele>
        <time>2025-05-21T10:33:45Z</time>
      </trkpt>
      <trkpt lat="47.98407" lon="1.06024">
        <ele>200</ele>
        <time>2025-05-21T10:33:45Z</time>
      </trkpt>
      <trkpt lat="47.9842" lon="1.06014">
        <ele>200</ele>
        <time>2025-05-21T10:33:45Z</time>
      </trkpt>
      <trkpt lat="47.98477" lon="1.05968">
        <ele>199</ele>
        <time>2025-05-21T10:33:45Z</time>
      </trkpt>
      <trkpt lat="47.98489" lon="1.05965">
        <ele>199</ele>
        <time>2025-05-21T10:33:45Z</time>
      </trkpt>
      <trkpt lat="47.98535" lon="1.05956">
        <ele>199</ele>
        <time>2025-05-21T10:33:45Z</time>
      </trkpt>
      <trkpt lat="47.98547" lon="1.05955">
        <ele>199</ele>
        <time>2025-05-21T10:33:45Z</time>
      </trkpt>
      <trkpt lat="47.98571" lon="1.05947">
        <ele>199</ele>
        <time>2025-05-21T10:33:45Z</time>
      </trkpt>
      <trkpt lat="47.98586" lon="1.05946">
        <ele>199</ele>
        <time>2025-05-21T10:33:45Z</time>
      </trkpt>
      <trkpt lat="47.98598" lon="1.05941">
        <ele>199</ele>
        <time>2025-05-21T10:33:45Z</time>
      </trkpt>
      <trkpt lat="47.98635" lon="1.05925">
        <ele>199.3</ele>
        <time>2025-05-21T10:33:45Z</time>
      </trkpt>
      <trkpt lat="47.98647" lon="1.05921">
        <ele>199.4</ele>
        <time>2025-05-21T10:33:45Z</time>
      </trkpt>
      <trkpt lat="47.98692" lon="1.05904">
        <ele>199.6</ele>
        <time>2025-05-21T10:33:45Z</time>
      </trkpt>
      <trkpt lat="47.98704" lon="1.05896">
        <ele>199.3</ele>
        <time>2025-05-21T10:33:45Z</time>
      </trkpt>
      <trkpt lat="47.98729" lon="1.05882">
        <ele>199.2</ele>
        <time>2025-05-21T10:33:45Z</time>
      </trkpt>
      <trkpt lat="47.98741" lon="1.0588">
        <ele>199.7</ele>
        <time>2025-05-21T10:33:45Z</time>
      </trkpt>
      <trkpt lat="47.98766" lon="1.05889">
        <ele>200</ele>
        <time>2025-05-21T10:33:45Z</time>
      </trkpt>
      <trkpt lat="47.98784" lon="1.05892">
        <ele>200</ele>
        <time>2025-05-21T10:33:45Z</time>
      </trkpt>
      <trkpt lat="47.9879" lon="1.05912">
        <ele>200</ele>
        <time>2025-05-21T10:33:45Z</time>
      </trkpt>
      <trkpt lat="47.98794" lon="1.05931">
        <ele>200</ele>
        <time>2025-05-21T10:33:45Z</time>
      </trkpt>
      <trkpt lat="47.98809" lon="1.05955">
        <ele>200</ele>
        <time>2025-05-21T10:33:45Z</time>
      </trkpt>
      <trkpt lat="47.98821" lon="1.05961">
        <ele>200</ele>
        <time>2025-05-21T10:33:45Z</time>
      </trkpt>
      <trkpt lat="47.98845" lon="1.05965">
        <ele>200</ele>
        <time>2025-05-21T10:33:45Z</time>
      </trkpt>
      <trkpt lat="47.98853" lon="1.05947">
        <ele>200</ele>
        <time>2025-05-21T10:33:45Z</time>
      </trkpt>
      <trkpt lat="47.98867" lon="1.05932">
        <ele>199.4</ele>
        <time>2025-05-21T10:33:45Z</time>
      </trkpt>
      <trkpt lat="47.98873" lon="1.0595">
        <ele>199.6</ele>
        <time>2025-05-21T10:33:45Z</time>
      </trkpt>
      <trkpt lat="47.98873" lon="1.0597">
        <ele>199.6</ele>
        <time>2025-05-21T10:33:45Z</time>
      </trkpt>
      <trkpt lat="47.98884" lon="1.06025">
        <ele>200</ele>
        <time>2025-05-21T10:33:45Z</time>
      </trkpt>
      <trkpt lat="47.98891" lon="1.06043">
        <ele>199.9</ele>
        <time>2025-05-21T10:33:45Z</time>
      </trkpt>
      <trkpt lat="47.98902" lon="1.06104">
        <ele>200.3</ele>
        <time>2025-05-21T10:33:45Z</time>
      </trkpt>
      <trkpt lat="47.98928" lon="1.06067">
        <ele>198.8</ele>
        <time>2025-05-21T10:33:45Z</time>
      </trkpt>
      <trkpt lat="47.98951" lon="1.06031">
        <ele>197.8</ele>
        <time>2025-05-21T10:33:45Z</time>
      </trkpt>
      <trkpt lat="47.99032" lon="1.05923">
        <ele>196</ele>
        <time>2025-05-21T10:33:45Z</time>
      </trkpt>
      <trkpt lat="47.99041" lon="1.0596">
        <ele>196</ele>
        <time>2025-05-21T10:33:45Z</time>
      </trkpt>
      <trkpt lat="47.99043" lon="1.05996">
        <ele>196</ele>
        <time>2025-05-21T10:33:45Z</time>
      </trkpt>
      <trkpt lat="47.99058" lon="1.06035">
        <ele>196.3</ele>
        <time>2025-05-21T10:33:45Z</time>
      </trkpt>
      <trkpt lat="47.99087" lon="1.0602">
        <ele>196.7</ele>
        <time>2025-05-21T10:33:45Z</time>
      </trkpt>
      <trkpt lat="47.99216" lon="1.05947">
        <ele>194.1</ele>
        <time>2025-05-21T10:33:45Z</time>
      </trkpt>
      <trkpt lat="47.99215" lon="1.05945">
        <ele>194</ele>
        <time>2025-05-21T10:33:45Z</time>
      </trkpt>
      <trkpt lat="47.99215" lon="1.05946">
        <ele>194</ele>
        <time>2025-05-21T10:33:45Z</time>
      </trkpt>
      <trkpt lat="47.99224" lon="1.05937">
        <ele>194.1</ele>
        <time>2025-05-21T10:33:45Z</time>
      </trkpt>
      <trkpt lat="47.99231" lon="1.05923">
        <ele>194.3</ele>
        <time>2025-05-21T10:33:45Z</time>
      </trkpt>
      <trkpt lat="47.9927" lon="1.05719">
        <ele>194.7</ele>
        <time>2025-05-21T10:33:45Z</time>
      </trkpt>
      <trkpt lat="47.99271" lon="1.05396">
        <ele>196.9</ele>
        <time>2025-05-21T10:33:45Z</time>
      </trkpt>
      <trkpt lat="47.99226" lon="1.04973">
        <ele>197</ele>
        <time>2025-05-21T10:33:45Z</time>
      </trkpt>
      <trkpt lat="47.9923" lon="1.04897">
        <ele>196</ele>
        <time>2025-05-21T10:33:45Z</time>
      </trkpt>
      <trkpt lat="47.99222" lon="1.0482">
        <ele>196</ele>
        <time>2025-05-21T10:33:45Z</time>
      </trkpt>
      <trkpt lat="47.99222" lon="1.04819">
        <ele>196</ele>
        <time>2025-05-21T10:33:45Z</time>
      </trkpt>
      <trkpt lat="47.99031" lon="1.04">
        <ele>181</ele>
        <time>2025-05-21T10:33:45Z</time>
      </trkpt>
      <trkpt lat="47.99032" lon="1.03965">
        <ele>180</ele>
        <time>2025-05-21T10:33:45Z</time>
      </trkpt>
      <trkpt lat="47.99038" lon="1.03944">
        <ele>180</ele>
        <time>2025-05-21T10:33:45Z</time>
      </trkpt>
      <trkpt lat="47.99091" lon="1.03848">
        <ele>181.6</ele>
        <time>2025-05-21T10:33:45Z</time>
      </trkpt>
      <trkpt lat="47.99091" lon="1.03848">
        <ele>181.6</ele>
        <time>2025-05-21T10:33:45Z</time>
      </trkpt>
      <trkpt lat="47.99091" lon="1.03848">
        <ele>181.6</ele>
        <time>2025-05-21T10:33:45Z</time>
      </trkpt>
      <trkpt lat="47.99122" lon="1.03718">
        <ele>185.5</ele>
        <time>2025-05-21T10:33:45Z</time>
      </trkpt>
      <trkpt lat="47.99109" lon="1.03643">
        <ele>186.8</ele>
        <time>2025-05-21T10:33:45Z</time>
      </trkpt>
      <trkpt lat="47.99113" lon="1.03597">
        <ele>187.5</ele>
        <time>2025-05-21T10:33:45Z</time>
      </trkpt>
      <trkpt lat="47.99106" lon="1.03565">
        <ele>187.8</ele>
        <time>2025-05-21T10:33:45Z</time>
      </trkpt>
      <trkpt lat="47.99106" lon="1.03565">
        <ele>187.8</ele>
        <time>2025-05-21T10:33:45Z</time>
      </trkpt>
      <trkpt lat="47.99086" lon="1.03499">
        <ele>188.1</ele>
        <time>2025-05-21T10:33:45Z</time>
      </trkpt>
    </trkseg>
  </trk>
</gpx>